Time,TemperatureF,DewpointF,PressureIn,WindDirection,WindDirectionDegrees,WindSpeedMPH,WindSpeedGustMPH,Humidity,HourlyPrecipIn,Conditions,Clouds,dailyrainin,SolarRadiationWatts/m^2,SoftwareType,DateUTC
2013-02-04 00:22:00,42.0,27.0,-100.00,WSW,257,5.0,8.0,56,0.00,,,0.00,230.000000,,2013-02-04 00:22:00,
2013-02-04 00:31:00,42.0,27.0,-100.00,WSW,257,5.0,8.0,56,0.00,,,0.00,230.000000,,2013-02-04 00:31:00,
2013-02-04 00:41:00,42.0,27.0,-100.00,WSW,257,5.0,8.0,56,0.00,,,0.00,230.000000,,2013-02-04 00:41:00,
2013-02-04 00:51:00,42.0,27.0,-100.00,WSW,257,5.0,8.0,56,0.00,,,0.00,230.000000,,2013-02-04 00:51:00,
2013-02-04 01:21:00,39.0,25.0,-100.00,SW,221,3.0,7.0,58,0.00,,,0.00,78.000000,,2013-02-04 01:21:00,
2013-02-04 01:31:00,39.0,25.0,-100.00,SW,221,3.0,7.0,58,0.00,,,0.00,78.000000,,2013-02-04 01:31:00,
2013-02-04 01:41:00,39.0,25.0,-100.00,SW,221,3.0,7.0,58,0.00,,,0.00,78.000000,,2013-02-04 01:41:00,
2013-02-04 01:52:00,39.0,25.0,-100.00,SW,221,3.0,7.0,58,0.00,,,0.00,78.000000,,2013-02-04 01:52:00,
2013-02-04 02:21:00,37.0,26.0,-100.00,South,169,2.0,5.0,63,0.00,,,0.00,15.000000,,2013-02-04 02:21:00,
2013-02-04 02:31:00,37.0,26.0,-100.00,South,169,2.0,5.0,63,0.00,,,0.00,15.000000,,2013-02-04 02:31:00,
2013-02-04 02:41:00,37.0,26.0,-100.00,South,169,2.0,5.0,63,0.00,,,0.00,15.000000,,2013-02-04 02:41:00,
2013-02-04 02:52:00,37.0,26.0,-100.00,South,169,2.0,5.0,63,0.00,,,0.00,15.000000,,2013-02-04 02:52:00,
2013-02-04 03:21:00,37.0,27.0,-100.00,West,273,3.0,5.0,66,0.00,,,0.00,1.000000,,2013-02-04 03:21:00,
2013-02-04 03:32:00,37.0,27.0,-100.00,West,273,3.0,5.0,66,0.00,,,0.00,1.000000,,2013-02-04 03:32:00,
2013-02-04 03:41:00,37.0,27.0,-100.00,West,273,3.0,5.0,66,0.00,,,0.00,1.000000,,2013-02-04 03:41:00,
2013-02-04 03:51:00,37.0,27.0,-100.00,West,273,3.0,5.0,66,0.00,,,0.00,1.000000,,2013-02-04 03:51:00,
2013-02-04 04:21:00,34.0,26.0,-100.00,ESE,112,2.0,5.0,72,0.00,,,0.00,1.000000,,2013-02-04 04:21:00,
2013-02-04 04:31:00,34.0,26.0,-100.00,ESE,112,2.0,5.0,72,0.00,,,0.00,1.000000,,2013-02-04 04:31:00,
2013-02-04 04:41:00,34.0,26.0,-100.00,ESE,112,2.0,5.0,72,0.00,,,0.00,1.000000,,2013-02-04 04:41:00,
2013-02-04 04:52:00,34.0,26.0,-100.00,ESE,112,2.0,5.0,72,0.00,,,0.00,1.000000,,2013-02-04 04:52:00,
2013-02-04 05:22:00,35.0,26.0,-100.00,NW,310,3.0,4.0,68,0.00,,,0.00,1.000000,,2013-02-04 05:22:00,
2013-02-04 05:33:00,35.0,26.0,-100.00,NW,310,3.0,4.0,68,0.00,,,0.00,1.000000,,2013-02-04 05:33:00,
2013-02-04 05:42:00,35.0,26.0,-100.00,NW,310,3.0,4.0,68,0.00,,,0.00,1.000000,,2013-02-04 05:42:00,
2013-02-04 05:51:00,35.0,26.0,-100.00,NW,310,3.0,4.0,68,0.00,,,0.00,1.000000,,2013-02-04 05:51:00,
2013-02-04 06:21:00,33.0,26.0,-100.00,ENE,73,3.0,5.0,76,0.00,,,0.00,1.000000,,2013-02-04 06:21:00,
2013-02-04 06:31:00,33.0,26.0,-100.00,ENE,73,3.0,5.0,76,0.00,,,0.00,1.000000,,2013-02-04 06:31:00,
2013-02-04 06:41:00,33.0,26.0,-100.00,ENE,73,3.0,5.0,76,0.00,,,0.00,1.000000,,2013-02-04 06:41:00,
2013-02-04 06:51:00,33.0,26.0,-100.00,ENE,73,3.0,5.0,76,0.00,,,0.00,1.000000,,2013-02-04 06:51:00,
2013-02-04 07:21:00,32.0,24.0,-100.00,East,84,2.0,4.0,73,0.00,,,0.00,1.000000,,2013-02-04 07:21:00,
2013-02-04 07:31:00,32.0,24.0,-100.00,East,84,2.0,4.0,73,0.00,,,0.00,1.000000,,2013-02-04 07:31:00,
2013-02-04 07:41:00,32.0,24.0,-100.00,East,84,2.0,4.0,73,0.00,,,0.00,1.000000,,2013-02-04 07:41:00,
2013-02-04 07:51:00,32.0,24.0,-100.00,East,84,2.0,4.0,73,0.00,,,0.00,1.000000,,2013-02-04 07:51:00,
2013-02-04 08:21:00,33.0,25.0,-100.00,ENE,67,2.0,3.0,73,0.00,,,0.00,1.000000,,2013-02-04 08:21:00,
2013-02-04 08:31:00,33.0,25.0,-100.00,ENE,67,2.0,3.0,73,0.00,,,0.00,1.000000,,2013-02-04 08:31:00,
2013-02-04 08:41:00,33.0,25.0,-100.00,ENE,67,2.0,3.0,73,0.00,,,0.00,1.000000,,2013-02-04 08:41:00,
2013-02-04 08:52:00,33.0,25.0,-100.00,ENE,67,2.0,3.0,73,0.00,,,0.00,1.000000,,2013-02-04 08:52:00,
2013-02-04 09:21:00,30.0,24.0,-100.00,ESE,107,1.0,4.0,79,0.00,,,0.00,1.000000,,2013-02-04 09:21:00,
2013-02-04 09:31:00,30.0,24.0,-100.00,ESE,107,1.0,4.0,79,0.00,,,0.00,1.000000,,2013-02-04 09:31:00,
2013-02-04 09:41:00,30.0,24.0,-100.00,ESE,107,1.0,4.0,79,0.00,,,0.00,1.000000,,2013-02-04 09:41:00,
2013-02-04 09:51:00,30.0,24.0,-100.00,ESE,107,1.0,4.0,79,0.00,,,0.00,1.000000,,2013-02-04 09:51:00,
2013-02-04 10:21:00,30.0,25.0,-100.00,East,88,3.0,4.0,82,0.00,,,0.00,1.000000,,2013-02-04 10:21:00,
2013-02-04 10:32:00,30.0,25.0,-100.00,East,88,3.0,4.0,82,0.00,,,0.00,1.000000,,2013-02-04 10:32:00,
2013-02-04 10:41:00,30.0,25.0,-100.00,East,88,3.0,4.0,82,0.00,,,0.00,1.000000,,2013-02-04 10:41:00,
2013-02-04 10:51:00,30.0,25.0,-100.00,East,88,3.0,4.0,82,0.00,,,0.00,1.000000,,2013-02-04 10:51:00,
2013-02-04 11:22:00,29.0,24.0,-100.00,East,101,2.0,5.0,81,0.00,,,0.00,1.000000,,2013-02-04 11:22:00,
2013-02-04 11:32:00,29.0,24.0,-100.00,East,101,2.0,5.0,81,0.00,,,0.00,1.000000,,2013-02-04 11:32:00,
2013-02-04 11:42:00,29.0,24.0,-100.00,East,101,2.0,5.0,81,0.00,,,0.00,1.000000,,2013-02-04 11:42:00,
2013-02-04 11:52:00,29.0,24.0,-100.00,East,101,2.0,5.0,81,0.00,,,0.00,1.000000,,2013-02-04 11:52:00,
2013-02-04 12:21:00,28.0,25.0,-100.00,ENE,77,3.0,5.0,87,0.00,,,0.00,1.000000,,2013-02-04 12:21:00,
2013-02-04 12:32:00,28.0,25.0,-100.00,ENE,77,3.0,5.0,87,0.00,,,0.00,1.000000,,2013-02-04 12:32:00,
2013-02-04 12:42:00,28.0,25.0,-100.00,ENE,77,3.0,5.0,87,0.00,,,0.00,1.000000,,2013-02-04 12:42:00,
2013-02-04 12:52:00,28.0,25.0,-100.00,ENE,77,3.0,5.0,87,0.00,,,0.00,1.000000,,2013-02-04 12:52:00,
2013-02-04 13:21:00,27.0,23.0,-100.00,East,85,3.0,4.0,85,0.00,,,0.00,1.000000,,2013-02-04 13:21:00,
2013-02-04 13:32:00,27.0,23.0,-100.00,East,85,3.0,4.0,85,0.00,,,0.00,1.000000,,2013-02-04 13:32:00,
2013-02-04 13:41:00,27.0,23.0,-100.00,East,85,3.0,4.0,85,0.00,,,0.00,1.000000,,2013-02-04 13:41:00,
2013-02-04 13:51:00,27.0,23.0,-100.00,East,85,3.0,4.0,85,0.00,,,0.00,1.000000,,2013-02-04 13:51:00,
2013-02-04 14:21:00,29.0,24.0,-100.00,East,79,3.0,6.0,80,0.00,,,-99.99,1.000000,,2013-02-04 14:21:00,
2013-02-04 14:32:00,29.0,24.0,-100.00,East,79,3.0,6.0,80,0.00,,,-99.99,1.000000,,2013-02-04 14:32:00,
2013-02-04 14:42:00,29.0,24.0,-100.00,East,79,3.0,6.0,80,0.00,,,-99.99,1.000000,,2013-02-04 14:42:00,
2013-02-04 14:52:00,29.0,24.0,-100.00,East,79,3.0,6.0,80,0.00,,,-99.99,1.000000,,2013-02-04 14:52:00,
2013-02-04 15:23:00,28.0,24.0,-100.00,East,93,3.0,5.0,84,0.00,,,0.00,1.000000,,2013-02-04 15:23:00,
2013-02-04 15:33:00,28.0,24.0,-100.00,East,93,3.0,5.0,84,0.00,,,0.00,1.000000,,2013-02-04 15:33:00,
2013-02-04 15:43:00,28.0,24.0,-100.00,East,93,3.0,5.0,84,0.00,,,0.00,1.000000,,2013-02-04 15:43:00,
2013-02-04 15:52:00,28.0,24.0,-100.00,East,93,3.0,5.0,84,0.00,,,0.00,1.000000,,2013-02-04 15:52:00,
2013-02-04 18:22:00,40.0,27.0,-100.00,ESE,111,2.0,5.0,60,-99.99,,,0.00,240.000000,,2013-02-04 18:22:00,
2013-02-04 18:31:00,40.0,27.0,-100.00,ESE,111,2.0,5.0,60,-99.99,,,0.00,240.000000,,2013-02-04 18:31:00,
2013-02-04 18:41:00,40.0,27.0,-100.00,ESE,111,2.0,5.0,60,-99.99,,,0.00,240.000000,,2013-02-04 18:41:00,
2013-02-04 18:52:00,40.0,27.0,-100.00,ESE,111,2.0,5.0,60,-99.99,,,0.00,240.000000,,2013-02-04 18:52:00,
2013-02-04 19:22:00,42.0,28.0,-100.00,WSW,253,3.0,8.0,58,0.00,,,0.00,279.000000,,2013-02-04 19:22:00,
2013-02-04 19:31:00,42.0,28.0,-100.00,WSW,253,3.0,8.0,58,0.00,,,0.00,279.000000,,2013-02-04 19:31:00,
2013-02-04 19:41:00,42.0,28.0,-100.00,WSW,253,3.0,8.0,58,0.00,,,0.00,279.000000,,2013-02-04 19:41:00,
2013-02-04 19:51:00,42.0,28.0,-100.00,WSW,253,3.0,8.0,58,0.00,,,0.00,279.000000,,2013-02-04 19:51:00,
2013-02-04 20:21:00,44.0,28.0,-100.00,WSW,240,3.0,8.0,54,0.00,,,0.00,402.000000,,2013-02-04 20:21:00,
2013-02-04 20:32:00,44.0,28.0,-100.00,WSW,240,3.0,8.0,54,0.00,,,0.00,402.000000,,2013-02-04 20:32:00,
2013-02-04 20:42:00,44.0,28.0,-100.00,WSW,240,3.0,8.0,54,0.00,,,0.00,402.000000,,2013-02-04 20:42:00,
2013-02-04 20:52:00,44.0,28.0,-100.00,WSW,240,3.0,8.0,54,0.00,,,0.00,402.000000,,2013-02-04 20:52:00,
2013-02-04 22:21:00,45.0,27.0,-100.00,SW,224,6.0,9.0,50,-99.99,,,0.00,453.000000,,2013-02-04 22:21:00,
2013-02-04 22:32:00,45.0,27.0,-100.00,SW,224,6.0,9.0,50,-99.99,,,0.00,453.000000,,2013-02-04 22:32:00,
2013-02-04 22:41:00,45.0,27.0,-100.00,SW,224,6.0,9.0,50,-99.99,,,0.00,453.000000,,2013-02-04 22:41:00,
2013-02-04 22:51:00,45.0,27.0,-100.00,SW,224,6.0,9.0,50,-99.99,,,0.00,453.000000,,2013-02-04 22:51:00,
2013-02-04 23:21:00,48.0,29.0,-100.00,SW,218,5.0,9.0,47,0.00,,,0.00,424.000000,,2013-02-04 23:21:00,
2013-02-04 23:32:00,48.0,29.0,-100.00,SW,218,5.0,9.0,47,0.00,,,0.00,424.000000,,2013-02-04 23:32:00,
2013-02-04 23:41:00,48.0,29.0,-100.00,SW,218,5.0,9.0,47,0.00,,,0.00,424.000000,,2013-02-04 23:41:00,
2013-02-04 23:52:00,48.0,29.0,-100.00,SW,218,5.0,9.0,47,0.00,,,0.00,424.000000,,2013-02-04 23:52:00,